Location: Cartignies
(50.0929°N, 3.8447°E)
Time: 14:53:02
(UTC+00:00)

Nadezhda 1 Rocket - Pass Details

Date: 12 January 2026
Orbit: 941 x 1004 km, 83.0° (Epoch: 16 February)

Event Time Altitude Azimuth Distance (km) Brightness Sun altitude
Rises 16:39:47 0° 173° (S) 3,601 7.3 -5.4°
Reaches altitude 10° 16:42:18 10° 169° (S) 2,656 6.5 -5.8°
Maximum altitude 16:48:12 57° 93° (E) 1,107 4.1 -6.6°
Drops below altitude 10° 16:54:07 10° 16° (NNE) 2,672 5.9 -7.5°
Sets 16:56:39 0° 13° (NNE) 3,625 6.6 -7.9°
